• Join FlightAware (Why Join?)
  • Login
  • US Flag GB Flag 
03:35 EST


 

Airport Tracker/Info


-or-


 

Live Flight TrackerFlight Track Log ✈ N448ND ✈ 14-May-2014 ✈ KFPR - KFPR

Flight Track Log - Related Links

Times and Time Zones

All times are in EDT time to prevent confusion due to time zone crossing. See the N448ND flight status page for this flight to view local times or setup timezone preferences in your user account.

Time Position Orientation Groundspeed Altitude Reporting Facility
EDT Latitude Longitude Course Direction KTS MPH feet Rate Location/Type
12:37 27.4861 -80.3603 152° Southeast 29 33 200  Level Miami Center
12:38 27.4811 -80.3392 105° East 70 81 900 600 Climbing Miami Center
12:39 27.4828 -80.3169 85° East 68 78 1,500 480 Climbing Miami Center
12:40 27.4858 -80.2944 81° East 68 78 2,000 480 Climbing Miami Center
12:41 27.5133 -80.2967 356° North 97 112 2,500 480 Climbing Miami Center
12:42 27.5436 -80.3025 350° North 102 117 3,000 240 Climbing Miami Center
12:43 27.4975 -80.3726 152° Southeast  Level Estimated
12:43 27.5675 -80.3233 322° Northwest 114 131 3,000  Level Miami Center
12:44 27.5697 -80.3614 274° West 118 136 3,000  Level Miami Center
12:45 27.5708 -80.3972 272° West 118 136 3,000  Level Miami Center
12:46 27.5708 -80.4328 270° West 112 129 3,000  Level Miami Center
12:47 27.5728 -80.4686 274° West 110 127 3,000 -60 Level Miami Center
12:49 27.5769 -80.5031 278° West 110 127 2,900 -60 Descending Miami Center
12:50 27.5792 -80.5386 274° West 109 125 2,900  Level Miami Center
12:51 27.5822 -80.5731 276° West 108 124 3,000 60 Climbing Miami Center
12:52 27.5886 -80.6067 282° West 113 130 3,100 120 Climbing Miami Center
12:53 27.6086 -80.5928 32° Northeast 94 108 3,300 240 Climbing Miami Center
12:54 27.6100 -80.5722 86° East 73 84 3,700 300 Climbing Miami Center
12:55 27.5964 -80.5794 205° Southwest 97 112 4,000 120 Climbing Miami Center
12:56 27.5861 -80.6131 251° West 108 124 4,000  Level Miami Center
12:57 27.6100 -80.6186 348° North 110 127 4,000 -60 Level Miami Center
12:58 27.6031 -80.5919 106° East 86 99 3,900 -300 Descending Miami Center
12:59 27.5772 -80.5958 188° South 92 106 3,400 -540 Descending Miami Center
13:00 27.5525 -80.5981 185° South 87 100 2,800 -660 Descending Miami Center
13:01 27.5281 -80.5972 178° South 86 99 2,100 -420 Descending Miami Center
13:02 27.5033 -80.5939 173° South 85 98 2,000 -120 Descending Miami Center
13:03 27.5003 -80.5683 98° East 93 107 1,900 -120 Descending Miami Center
13:04 27.5006 -80.5414 89° East 86 99 1,800 -60 Descending Miami Center
13:05 27.4992 -80.5150 93° East 84 97 1,800 -60 Level Miami Center
13:06 27.4983 -80.4889 92° East 80 92 1,700 -240 Descending Miami Center
13:07 27.4981 -80.4650 91° East 78 90 1,400 -420 Descending Miami Center
13:08 27.4972 -80.4447 93° East 65 75 900 -360 Descending Miami Center
13:09 27.4967 -80.4222 92° East 66 76 700 -240 Descending Miami Center